Wind_Speed
37 38 38 38 39 37 36 36 37 37 38 37 38 37 33 31 32 29 29 36 40 48 56 64 71 81 85 91 94 96 94 93 93 95 94 96 103 103 100 102 106 108 106
48 48 48 45 43 41 39 37 37 36 35 35 37 37 38 39 33 33 33 34 37 40 51 63 71 81 87 90 92 93 84 84 80 78 76 80 85 86 92 94 94 98 104
51 51 52 52 52 51 49 46 44 41 41 38 34 34 37 39 41 41 38 41 41 44 50 52 56 65 80 84 83 77 73 72 73 75 80 81 80 81 85 90 95 97 99
53 53 52 52 52 52 51 51 51 50 47 44 42 41 40 38 40 42 45 47 49 51 52 55 58 63 67 71 74 76 80 84 79 75 77 81 82 84 87 92 97 97 97
56 53 52 52 52 53 53 53 53 52 50 49 48 49 48 47 46 45 46 50 52 55 57 60 63 66 68 72 76 79 79 86 86 85 85 86 88 90 90 89 89 90 89
59 58 56 53 53 53 53 54 54 54 53 51 51 51 50 51 55 57 55 53 54 58 61 64 67 69 72 73 74 76 76 78 80 79 80 82 82 81 82 83 82 86 85
64 63 60 58 56 55 55 55 56 55 55 55 53 53 53 52 54 58 61 62 64 63 62 65 69 71 72 74 76 78 79 79 78 78 80 81 80 78 81 81 79 79 79
65 65 64 62 60 58 57 57 57 57 58 59 57 54 54 53 54 57 60 64 64 65 69 70 68 70 73 75 76 77 79 80 81 80 79 79 78 80 77 75 75 73 74
63 63 64 64 65 62 60 58 59 59 60 61 61 61 57 56 56 55 58 60 64 66 64 65 68 70 71 75 78 79 80 81 79 79 81 82 82 79 76 72 72 71 71
63 64 65 66 67 67 65 63 61 61 61 62 63 64 63 60 59 59 59 58 58 60 62 64 64 68 72 73 76 79 82 85 83 81 81 83 84 83 80 76 73 71 70
69 67 67 69 68 69 68 69 66 65 64 63 63 64 64 64 62 62 60 60 59 58 58 59 61 64 69 72 74 76 78 82 84 84 85 85 85 84 84 82 79 77 73
70 70 70 70 70 69 68 69 69 69 66 66 65 67 65 65 63 64 61 60 59 59 58 59 60 61 62 66 69 73 77 79 82 84 85 87 87 88 88 87 85 83 80
70 73 71 71 69 68 69 70 70 70 70 68 68 69 68 67 67 67 64 61 60 58 59 59 58 58 60 62 64 67 72 77 81 83 84 85 85 87 88 89 89 89 86
75 73 72 70 68 69 68 69 70 70 71 69 69 70 70 69 69 67 66 64 61 60 60 58 56 56 57 59 62 63 66 70 75 79 82 83 83 83 84 85 84 86 87
80 77 77 75 71 70 70 69 70 71 70 71 70 71 71 71 71 70 69 66 62 62 60 58 56 55 55 54 56 59 62 65 68 70 73 77 79 81 82 82 82 83 82
83 76 77 74 71 70 70 70 71 72 71 71 71 71 72 73 74 74 72 69 64 63 61 58 54 53 52 53 54 56 56 57 59 62 65 67 70 72 76 80 80 79 80
84 76 76 74 70 68 71 70 70 70 71 72 71 71 71 73 73 75 74 70 67 65 62 56 54 54 55 54 55 56 55 54 55 55 56 58 61 64 66 68 71 75 79
82 75 75 73 67 67 70 68 70 71 72 72 71 71 70 72 73 74 74 72 70 64 61 56 55 54 54 52 51 51 50 51 50 49 50 51 52 53 56 61 65 65 67
75 73 71 68 63 65 67 66 69 71 72 72 72 70 71 71 72 74 73 72 70 66 61 56 55 52 50 48 47 46 46 47 46 45 45 46 46 48 50 51 53 57 61
72 65 64 62 62 63 63 65 68 69 70 70 70 71 72 72 72 74 72 71 66 62 58 56 53 51 48 46 44 44 43 41 40 39 38 39 40 41 41 44 47 49 52
63 60 58 59 60 60 62 64 66 67 68 68 67 69 71 71 73 74 73 71 66 60 57 54 51 48 45 43 42 40 37 36 35 35 34 34 34 35 36 37 39 41 44
58 54 55 57 57 59 61 63 64 66 67 67 66 67 69 70 72 73 72 70 64 58 54 52 48 46 43 41 37 34 33 33 32 32 31 30 30 30 31 32 34 35 37
53 53 56 55 55 57 60 61 62 64 65 65 65 66 67 68 71 72 71 68 62 56 52 51 46 42 41 38 35 33 32 30 30 29 28 28 27 26 26 27 29 30 31
51 53 54 54 55 57 57 58 60 63 63 62 63 65 66 68 70 70 69 65 58 53 50 48 44 41 39 36 33 31 30 28 27 27 27 25 23 22 22 22 22 24 26
48 51 54 56 55 55 54 56 59 59 60 60 61 63 63 67 68 68 67 62 55 51 48 46 41 38 37 33 31 29 28 26 27 26 24 23 22 20 18 17 16 17 18
46 50 51 52 53 52 53 55 56 56 57 57 60 60 62 66 66 65 65 59 51 49 47 45 40 37 35 31 29 27 26 25 23 23 21 20 19 17 15 13 12 12 12
Wind_Direction
343 341 339 336 331 328 326 326 327 327 326 324 318 312 307 300 287 274 267 259 258 252 246 241 243 242 246 249 251 256 258 259 260 259 257 256 256 256 257 257 255 257 258
348 346 344 341 338 335 332 329 327 325 324 324 322 318 312 305 299 294 282 266 266 261 254 249 247 245 248 252 255 259 264 264 266 270 264 265 264 259 258 255 257 256 255
351 347 344 341 339 339 336 333 329 327 322 319 316 314 313 310 304 297 290 283 274 266 264 260 260 258 256 254 260 263 265 266 263 264 267 262 262 258 260 261 258 258 256
349 348 345 341 338 335 334 333 330 326 323 319 316 314 310 303 299 296 291 285 281 276 271 267 265 263 263 263 263 266 266 268 266 261 261 258 259 260 261 260 258 257 260
343 340 339 340 338 335 332 330 329 325 321 317 314 312 310 307 301 292 286 284 283 280 276 272 269 268 265 265 265 265 264 262 260 262 261 259 257 257 258 260 260 260 261
337 337 336 334 335 335 331 328 326 324 322 318 313 309 304 303 302 298 293 285 281 279 277 275 272 269 267 266 264 265 266 267 267 267 266 266 265 263 263 262 261 260 259
334 334 333 331 330 329 330 327 325 323 322 318 316 311 305 303 296 292 290 289 289 286 279 274 271 268 268 267 266 266 264 262 262 262 263 263 264 264 263 263 261 260 257
329 329 329 329 327 325 324 325 323 322 321 320 316 313 310 307 303 296 291 290 287 283 282 280 274 269 267 266 264 263 264 264 263 263 262 263 262 261 260 260 260 259 257
327 327 326 325 324 324 323 321 322 321 319 319 319 316 315 311 308 302 295 292 289 288 283 279 276 273 269 266 264 263 264 264 262 261 260 260 260 260 262 260 258 257 257
330 326 324 323 322 321 321 321 319 320 318 317 319 317 317 316 313 311 304 299 293 287 284 282 279 275 272 267 265 264 263 263 262 261 260 259 258 258 257 257 258 258 256
329 328 326 323 320 318 318 318 318 319 318 318 317 318 318 318 317 316 310 307 303 296 290 285 281 277 272 270 267 265 263 262 261 260 259 258 256 256 256 254 253 254 254
325 326 324 321 320 317 315 315 316 318 319 320 318 319 319 319 318 318 315 311 308 303 298 294 289 282 276 272 269 267 265 264 263 262 260 258 257 255 252 252 252 250 250
319 319 322 322 317 315 313 313 315 316 318 320 319 319 320 320 320 321 319 315 311 307 303 300 294 288 283 277 272 269 267 265 263 263 264 264 262 260 258 255 251 249 247
317 314 317 318 316 316 313 312 313 315 318 319 319 320 321 321 321 322 321 319 315 311 309 304 299 294 289 284 280 275 270 267 266 265 265 265 265 264 262 260 257 255 251
315 315 316 316 316 314 313 310 311 313 316 318 320 320 321 321 322 323 324 321 318 315 312 307 303 296 291 285 281 279 278 275 272 269 265 264 264 263 262 261 259 256 252
311 311 314 314 313 312 311 310 310 312 315 317 320 320 322 322 322 324 324 324 321 319 315 311 306 301 298 295 291 285 280 276 272 270 269 267 265 262 260 258 257 256 254
307 306 310 309 309 309 308 309 309 310 313 316 319 319 321 322 322 324 325 325 324 321 318 313 308 305 301 296 293 290 287 284 280 276 273 269 266 264 262 261 257 253 253
303 302 304 306 306 306 306 307 309 310 312 314 318 319 321 322 322 325 326 326 325 322 318 314 310 307 303 300 297 295 293 289 286 283 278 274 271 267 263 260 259 257 253
298 300 301 302 302 302 304 306 308 309 312 314 318 320 321 322 323 325 328 327 326 323 319 316 312 309 306 305 302 299 296 292 290 286 282 278 274 271 268 264 259 256 254
297 298 298 296 298 299 301 303 306 309 311 315 318 319 321 322 323 326 329 328 326 322 319 317 315 314 313 310 308 304 300 295 292 289 286 282 278 274 269 265 262 258 255
294 297 295 295 297 298 300 302 305 309 311 315 317 318 320 321 323 326 329 330 328 324 322 319 319 318 317 315 311 307 302 300 298 296 292 288 284 280 276 271 264 260 255
293 294 294 295 295 295 298 302 305 309 312 314 317 317 319 320 323 326 329 330 328 325 323 321 323 321 320 317 312 310 309 308 306 303 299 295 291 286 281 276 270 264 259
292 292 292 292 292 293 296 301 305 309 312 314 315 317 318 320 323 326 329 330 328 326 325 324 326 325 324 322 320 319 318 316 314 311 309 305 300 294 287 279 274 269 263
289 290 291 291 290 291 296 300 304 308 310 313 314 316 318 320 323 326 329 330 328 326 326 326 328 329 328 324 323 324 323 322 321 320 317 313 309 303 295 284 275 269 263
288 289 289 289 289 292 297 301 304 307 309 311 313 315 317 320 323 327 329 330 328 327 328 328 331 330 329 327 328 327 326 327 328 326 325 321 317 311 303 294 283 272 262
286 286 287 288 290 293 297 301 304 306 308 310 312 314 317 320 323 327 329 329 328 327 329 330 331 332 332 330 329 328 330 332 331 327 329 327 323 319 315 310 303 291 277
Height
10523 10515 10507 10498 10490 10483 10475 10465 10457 10450 10444 10438 10432 10425 10420 10418 10415 10415 10414 10411 10412 10414 10416 10416 10419 10421 10425 10427 10429 10432 10437 10444 10448 10450 10457 10464 10465 10469 10474 10480 10486 10490 10495
10516 10507 10498 10491 10484 10475 10467 10460 10451 10444 10439 10433 10426 10422 10417 10412 10409 10406 10404 10405 10405 10405 10404 10405 10405 10405 10405 10409 10411 10413 10418 10423 10429 10432 10431 10434 10438 10443 10449 10454 10458 10460 10466
10512 10502 10493 10484 10475 10467 10460 10452 10445 10438 10430 10424 10422 10417 10411 10406 10401 10399 10397 10393 10393 10393 10392 10392 10392 10391 10392 10393 10394 10393 10396 10400 10406 10408 10409 10411 10412 10415 10419 10420 10423 10428 10432
10509 10499 10489 10480 10470 10462 10454 10446 10438 10431 10424 10417 10410 10405 10401 10399 10396 10391 10387 10384 10381 10378 10376 10375 10375 10375 10374 10373 10373 10374 10376 10379 10382 10385 10387 10387 10387 10389 10394 10395 10397 10400 10405
10505 10495 10486 10476 10466 10456 10447 10439 10431 10424 10416 10410 10404 10397 10390 10384 10380 10377 10375 10371 10366 10363 10359 10357 10355 10353 10353 10352 10351 10353 10354 10357 10358 10359 10361 10363 10365 10365 10368 10370 10372 10376 10378
10497 10488 10479 10469 10459 10449 10440 10432 10423 10415 10407 10400 10394 10387 10382 10375 10367 10359 10354 10352 10350 10346 10342 10339 10337 10334 10333 10332 10331 10330 10331 10332 10333 10334 10334 10337 10339 10341 10342 10344 10347 10348 10352
10487 10478 10468 10458 10449 10441 10432 10423 10413 10405 10398 10389 10381 10374 10366 10360 10354 10347 10340 10334 10328 10324 10323 10320 10316 10314 10311 10309 10309 10308 10308 10309 10310 10312 10311 10312 10312 10316 10320 10322 10324 10327 10328
10477 10467 10457 10448 10439 10430 10421 10412 10403 10394 10385 10377 10369 10361 10354 10345 10336 10327 10320 10314 10310 10304 10297 10292 10291 10290 10288 10287 10285 10284 10284 10283 10287 10290 10288 10286 10290 10290 10296 10298 10300 10306 10306
10466 10456 10446 10438 10429 10420 10411 10401 10391 10382 10372 10362 10353 10345 10337 10329 10320 10311 10302 10294 10286 10278 10274 10269 10265 10262 10262 10261 10260 10258 10256 10254 10260 10263 10264 10263 10264 10269 10271 10275 10276 10282 10284
10455 10446 10436 10427 10417 10407 10398 10389 10380 10371 10360 10349 10339 10329 10320 10310 10301 10292 10282 10274 10266 10258 10252 10244 10238 10234 10231 10232 10232 10231 10229 10225 10230 10234 10236 10236 10237 10240 10244 10250 10252 10257 10262
10442 10434 10423 10414 10404 10393 10384 10374 10365 10356 10346 10336 10326 10316 10306 10295 10284 10274 10264 10253 10243 10234 10227 10221 10216 10210 10205 10201 10201 10201 10200 10198 10198 10201 10204 10205 10208 10212 10215 10221 10227 10234 10238
10428 10419 10411 10401 10390 10380 10370 10360 10350 10339 10330 10320 10309 10300 10291 10280 10269 10258 10248 10236 10225 10213 10204 10197 10190 10184 10179 10174 10172 10171 10171 10170 10169 10169 10172 10174 10177 10180 10184 10189 10196 10204 10212
10414 10404 10395 10387 10376 10366 10356 10345 10334 10323 10313 10303 10292 10282 10273 10264 10252 10240 10229 10218 10207 10195 10184 10175 10166 10160 10154 10149 10147 10146 10144 10144 10142 10141 10140 10142 10145 10149 10153 10159 10166 10172 10182
10395 10387 10378 10369 10360 10351 10341 10330 10319 10309 10298 10287 10276 10265 10255 10245 10235 10224 10213 10200 10188 10175 10164 10153 10144 10136 10131 10125 10120 10118 10117 10116 10116 10116 10116 10115 10116 10118 10121 10127 10137 10145 10156
10378 10369 10361 10352 10343 10334 10325 10315 10305 10294 10283 10272 10261 10249 10238 10227 10216 10206 10195 10184 10171 10157 10145 10135 10126 10117 10111 10106 10101 10097 10095 10092 10090 10089 10088 10088 10089 10090 10091 10095 10104 10112 10124
10358 10350 10342 10334 10326 10317 10308 10299 10289 10279 10269 10258 10246 10234 10223 10211 10198 10187 10176 10165 10153 10139 10127 10116 10107 10098 10091 10084 10079 10073 10072 10070 10067 10063 10062 10062 10061 10062 10064 10066 10073 10081 10089
10336 10331 10324 10315 10307 10300 10291 10282 10274 10265 10254 10244 10233 10221 10210 10198 10185 10173 10160 10148 10137 10122 10111 10100 10090 10082 10074 10067 10059 10052 10047 10045 10042 10040 10038 10037 10036 10037 10039 10040 10045 10052 10057
10316 10312 10304 10296 10289 10281 10273 10265 10255 10246 10237 10229 10220 10207 10196 10184 10172 10160 10146 10131 10119 10108 10096 10085 10075 10066 10057 10048 10041 10035 10030 10025 10022 10020 10017 10015 10014 10014 10015 10016 10020 10024 10030
10295 10291 10284 10277 10270 10263 10255 10247 10238 10229 10220 10210 10200 10191 10179 10168 10157 10146 10133 10118 10102 10089 10078 10069 10059 10050 10042 10033 10026 10019 10013 10008 10004 10001 9998 9996 9994 9993 9993 9994 9997 10000 10004
10274 10271 10265 10259 10253 10246 10239 10231 10223 10215 10205 10195 10184 10173 10163 10153 10142 10132 10121 10107 10093 10079 10067 10055 10043 10034 10025 10017 10010 10004 9999 9993 9989 9985 9981 9979 9977 9976 9976 9976 9977 9979 9981
10254 10253 10246 10240 10234 10228 10223 10215 10207 10200 10191 10182 10172 10162 10150 10138 10127 10116 10104 10091 10078 10065 10054 10042 10032 10023 10013 10005 9998 9992 9986 9980 9975 9971 9967 9964 9962 9961 9960 9960 9960 9962 9964
10236 10233 10227 10222 10217 10212 10206 10198 10192 10185 10176 10167 10158 10148 10137 10125 10115 10104 10092 10079 10066 10055 10043 10030 10022 10011 10003 9996 9989 9982 9975 9969 9964 9959 9955 9952 9950 9948 9946 9945 9945 9946 9947
10219 10214 10209 10205 10200 10195 10189 10184 10177 10170 10162 10153 10144 10134 10124 10113 10103 10092 10079 10067 10054 10043 10032 10020 10012 10002 9994 9986 9978 9972 9966 9961 9955 9950 9946 9943 9940 9937 9935 9934 9933 9933 9934
10203 10196 10191 10188 10184 10179 10174 10169 10164 10157 10149 10140 10131 10121 10111 10101 10092 10081 10069 10057 10045 10035 10023 10013 10004 9994 9986 9978 9971 9965 9959 9954 9948 9944 9940 9936 9932 9929 9927 9925 9924 9923 9924
10185 10180 10176 10172 10168 10164 10160 10155 10150 10144 10136 10127 10119 10110 10100 10090 10080 10069 10058 10046 10036 10025 10015 10005 9997 9989 9981 9973 9966 9960 9954 9949 9944 9939 9935 9930 9926 9923 9921 9919 9917 9917 9916
10167 10164 10160 10157 10154 10150 10146 10141 10136 10130 10123 10115 10107 10098 10089 10079 10070 10059 10048 10038 10028 10018 10008 9998 9990 9982 9975 9968 9961 9955 9951 9946 9941 9935 9932 9927 9923 9920 9917 9915 9913 9912 9911